[[{"header":{"parameterUnit":"m.s-1","parameterCategory":1,"la1":30.2991,"la2":30.254,"lo1":-89.0895,"lo2":-89.0444,"dy":0.0017,"dx":0.0017,"nx":28,"ny":28,"refTime":"2025-08-23T09:00:00:Z","depth":0,"parameterNumber":2,"parameterNumberName":"U-component_of_WINDS"},"data":[0,0,0,0,0,0,0,0,0,0,0,0,0,0,0,0,0,0,0,0,0,0,0,0,0,0,0,0,0,0,0,0,0,0,0,0,0,0,0,0,0,0,0,0,0,0,0,0,0,0,0,0,0,0,0,0,0,0,-0.0812,-0.0812,0,-0.0852,-0.0852,-0.0853,-0.084,-0.0839,-0.0838,-0.0837,-0.0879,-0.088,-0.0882,0,0,0,0,0,0,0,0,0,0,0,0,0,-0.0725,-0.0726,-0.0812,-0.0812,-0.0813,-0.0852,-0.0852,-0.0853,-0.084,-0.0839,-0.0838,-0.0837,-0.0878,-0.088,-0.0882,0,0,0,0,0,0,0,0,0,0,0,0,0,-0.0763,-0.0727,-0.0812,-0.0811,-0.0811,-0.0852,-0.0852,-0.0853,-0.084,-0.0839,-0.0837,-0.0836,-0.0877,-0.088,-0.0883,-0.0926,0,0,-0.0892,-0.0893,0,0,0,0,0,0,0,0,-0.0761,-0.0766,-0.0811,-0.0811,-0.0812,-0.0839,-0.0837,-0.0878,-0.084,-0.0829,-0.0837,-0.0835,-0.0867,-0.087,-0.0881,-0.0928,-0.093,-0.0892,-0.0894,-0.0895,-0.0896,0,0,0,0,0,0,0,-0.0758,-0.0765,-0.0828,-0.0811,-0.0812,-0.0809,-0.0813,-0.0844,-0.0855,-0.083,-0.0829,-0.0834,-0.0867,-0.0878,-0.0881,-0.0931,-0.0892,-0.0894,-0.0896,-0.0897,-0.1016,-0.1017,0,0,0,0,0,0,-0.0755,-0.0763,-0.0826,-0.0829,-0.0783,-0.0811,-0.0816,-0.0832,-0.0854,-0.0856,-0.0835,-0.0833,-0.0874,-0.0878,-0.0883,-0.0935,-0.0895,-0.0897,-0.0899,-0.1014,-0.1016,-0.1017,0,0,0,0,0,0,-0.0754,-0.0761,-0.0825,-0.0795,-0.0803,-0.0814,-0.0832,-0.0833,-0.0844,-0.0858,-0.086,-0.0845,-0.0873,-0.0879,-0.0915,-0.0936,-0.0899,-0.0901,-0.1012,-0.1015,-0.1017,-0.104,0,0,0,0,0,0,-0.0751,-0.0761,-0.0777,-0.0796,-0.0805,-0.0857,-0.0833,-0.0835,-0.0849,-0.0847,-0.0868,-0.087,-0.0872,-0.0911,-0.0918,-0.094,-0.0904,-0.1011,-0.1013,-0.1016,-0.1037,-0.1043,-0.1047,0,0,0,0,0,-0.0748,-0.0783,-0.0778,-0.0786,-0.0826,-0.0858,-0.0863,-0.0865,-0.0851,-0.0868,-0.0877,-0.0869,-0.0933,-0.0915,-0.0923,-0.0945,-0.1009,-0.1013,-0.1016,-0.1035,-0.1042,-0.1047,0,0,0,0,0,0,-0.0767,-0.0785,-0.078,-0.0822,-0.0839,-0.0856,-0.0877,-0.0872,-0.0893,-0.089,-0.0892,-0.0897,-0.0934,-0.0943,-0.0923,-0.0988,-0.0969,-0.0974,-0.0981,-0.0987,-0.0992,-0.0989,-0.0906,0,0,0,0,0,-0.0776,-0.08,-0.0815,-0.085,-0.0858,-0.0866,-0.088,-0.088,-0.0898,-0.0905,-0.0916,-0.0933,-0.0957,-0.0973,-0.0995,-0.1039,-0.1043,-0.1058,-0.1063,-0.1067,-0.1071,-0.1094,-0.1101,-0.1028,-0.1028,-0.1028,0,0,-0.0795,-0.0808,-0.0823,-0.0854,-0.0867,-0.0892,-0.0872,-0.09,-0.0919,-0.0909,-0.0944,-0.0953,-0.0972,-0.1012,-0.103,-0.1021,-0.1092,-0.1071,-0.1074,-0.1076,-0.1098,-0.1105,-0.1111,-0.103,-0.103,-0.1029,0,0,-0.0842,-0.0854,-0.0884,-0.0897,-0.0917,-0.0922,-0.0929,-0.0947,-0.0952,-0.0987,-0.098,-0.1002,-0.1044,-0.1057,-0.107,-0.1121,-0.1115,-0.1128,-0.1154,-0.1176,-0.1182,-0.1187,-0.1205,-0.1212,-0.1133,-0.1133,-0.1133,0,-0.0863,-0.09,-0.0901,-0.0929,-0.0943,-0.0934,-0.0965,-0.0978,-0.1004,-0.1013,-0.1002,-0.1053,-0.1066,-0.1109,-0.1121,-0.1131,-0.114,-0.1126,-0.1181,-0.1186,-0.1191,-0.1208,-0.1215,-0.1134,-0.1134,-0.1134,-0.1134,0,-0.0925,-0.0951,-0.0973,-0.0998,-0.1014,-0.1043,-0.1048,-0.1065,-0.1063,-0.1069,-0.1105,-0.1119,-0.1144,-0.1154,-0.1153,-0.1197,-0.1191,-0.118,-0.1161,-0.1199,-0.1215,-0.1222,-0.1136,-0.1136,-0.1135,-0.1135,0,0,-0.0986,-0.1009,-0.1018,-0.1028,-0.1049,-0.1069,-0.1098,-0.1122,-0.1136,-0.1154,-0.1177,-0.1212,-0.1202,-0.1216,-0.1217,-0.1236,-0.1276,-0.1224,-0.1224,-0.1233,-0.1324,-0.1331,-0.1339,-0.1271,-0.1273,-0.1274,-0.1322,0,-0.1034,-0.1084,-0.1085,-0.1131,-0.1155,-0.1147,-0.1172,-0.1187,-0.1193,-0.1214,-0.1221,-0.1246,-0.1231,-0.124,-0.1259,-0.1267,-0.1294,-0.1263,-0.1294,-0.1295,-0.1289,-0.1348,-0.1356,-0.1401,-0.1329,-0.133,-0.133,0,-0.1098,-0.1117,-0.1165,-0.1181,-0.1191,-0.1214,-0.1236,-0.1256,-0.1273,-0.1276,-0.1291,-0.1288,-0.1317,-0.1296,-0.1336,-0.1315,-0.1328,-0.1333,-0.1335,-0.1338,-0.1315,-0.1352,-0.1416,-0.1422,-0.134,-0.134,-0.1339,0,-0.1137,-0.1175,-0.1208,-0.1218,-0.1238,-0.1253,-0.1262,-0.1278,-0.1292,-0.1311,-0.132,-0.1343,-0.1355,-0.1372,-0.1376,-0.136,-0.1415,-0.1395,-0.1419,-0.1419,-0.1431,-0.143,-0.1497,-0.1439,-0.1439,-0.1439,-0.1439,0,-0.1191,-0.1221,-0.1226,-0.1247,-0.128,-0.1281,-0.1313,-0.1321,-0.1335,-0.1356,-0.1351,-0.1372,-0.1375,-0.1396,-0.1399,-0.1431,-0.1437,-0.144,-0.144,-0.144,-0.144,-0.1449,-0.1445,-0.144,-0.144,-0.144,-0.1439,0,-0.124,-0.1245,-0.1281,-0.1297,-0.1301,-0.1325,-0.1338,-0.1358,-0.1363,-0.1391,-0.1397,-0.1405,-0.143,-0.1435,-0.1464,-0.1466,-0.1505,-0.1502,-0.1499,-0.1499,-0.1522,-0.1519,-0.1597,-0.1607,-0.1542,-0.1543,-0.1543,0,-0.1275,-0.1297,-0.1315,-0.1329,-0.1338,-0.1361,-0.1376,-0.1377,-0.1392,-0.1412,-0.143,-0.1454,-0.1473,-0.1513,-0.1522,-0.1544,-0.1542,-0.1567,-0.1545,-0.1544,-0.1542,-0.154,-0.1542,-0.1572,-0.1572,-0.1573,-0.1573,0,-0.1335,-0.1336,-0.1356,-0.1378,-0.1395,-0.1412,-0.1428,-0.144,-0.1444,-0.1461,-0.1486,-0.1501,-0.153,-0.1554,-0.1576,-0.1585,-0.158,-0.158,-0.1587,-0.1587,-0.1584,-0.1586,-0.151,-0.1578,-0.1578,-0.1578,-0.1577,-0.1577,-0.1377,-0.1397,-0.1412,-0.1435,-0.1447,-0.1462,-0.1481,-0.1488,-0.1509,-0.1533,-0.1533,-0.156,-0.1576,-0.1605,-0.1615,-0.1637,-0.1628,-0.1638,-0.164,-0.1643,-0.1645,-0.1581,-0.1641,-0.164,-0.164,-0.164,-0.164,0,-0.1437,-0.1446,-0.1467,-0.149,-0.1508,-0.15,-0.1518,-0.1533,-0.1557,-0.1572,-0.1591,-0.1619,-0.1642,-0.1653,-0.1675,-0.169,-0.1688,-0.1696,-0.1695,-0.1697,-0.1651,-0.1643,-0.1697,-0.1697,-0.1697,-0.1697,-0.1697,-0.1697,-0.147,-0.1502,-0.1505,-0.1543,-0.1552,-0.1579,-0.1589,-0.1603,-0.1614,-0.1646,-0.1665,-0.1671,-0.1684,-0.1708,-0.1728,-0.173,-0.1739,-0.1748,-0.1749,-0.1706,-0.17,-0.1695,-0.1687,-0.175,-0.175,-0.1793,-0.1794,-0.1794]},{"header":{"parameterUnit":"m.s-1","parameterCategory":1,"la1":30.2991,"la2":30.254,"lo1":-89.0895,"lo2":-89.0444,"dy":0.0017,"dx":0.0017,"nx":28,"ny":28,"refTime":"2025-08-23T09:00:00:Z","depth":0,"parameterNumber":3,"parameterNumberName":"V-component_of_WINDS"},"data":[0,0,0,0,0,0,0,0,0,0,0,0,0,0,0,0,0,0,0,0,0,0,0,0,0,0,0,0,0,0,0,0,0,0,0,0,0,0,0,0,0,0,0,0,0,0,0,0,0,0,0,0,0,0,0,0,0,0,-1.3018,-1.3018,0,-1.3067,-1.3067,-1.3068,-1.3103,-1.3103,-1.3103,-1.3103,-1.3153,-1.3154,-1.3155,0,0,0,0,0,0,0,0,0,0,0,0,0,-1.2954,-1.2955,-1.3018,-1.3019,-1.3019,-1.3067,-1.3067,-1.3068,-1.3102,-1.3103,-1.3103,-1.3103,-1.3153,-1.3154,-1.3155,0,0,0,0,0,0,0,0,0,0,0,0,0,-1.299,-1.2956,-1.3018,-1.3042,-1.3045,-1.3066,-1.3067,-1.3068,-1.3102,-1.3103,-1.3103,-1.3104,-1.3152,-1.3154,-1.3155,-1.3157,0,0,-1.316,-1.3161,0,0,0,0,0,0,0,0,-1.2988,-1.2993,-1.3038,-1.304,-1.3043,-1.3079,-1.3063,-1.3098,-1.3102,-1.308,-1.3103,-1.3104,-1.3128,-1.3132,-1.314,-1.3159,-1.3161,-1.316,-1.3161,-1.3162,-1.3162,0,0,0,0,0,0,0,-1.2986,-1.2991,-1.3037,-1.3039,-1.3042,-1.305,-1.3056,-1.307,-1.3101,-1.3082,-1.3085,-1.309,-1.313,-1.3138,-1.3141,-1.3162,-1.316,-1.3162,-1.3163,-1.3163,-1.3184,-1.3184,0,0,0,0,0,0,-1.2979,-1.2988,-1.3036,-1.3039,-1.3016,-1.3051,-1.3057,-1.3067,-1.3101,-1.3107,-1.309,-1.3092,-1.3135,-1.3139,-1.3143,-1.3146,-1.3162,-1.3164,-1.3164,-1.3184,-1.3184,-1.3184,0,0,0,0,0,0,-1.2978,-1.2983,-1.3034,-1.3014,-1.3021,-1.3052,-1.3062,-1.3068,-1.3077,-1.3107,-1.3113,-1.3093,-1.3136,-1.3141,-1.3153,-1.3149,-1.3164,-1.3166,-1.3185,-1.3184,-1.3184,-1.3153,0,0,0,0,0,0,-1.2976,-1.2983,-1.2984,-1.3014,-1.3022,-1.3043,-1.3062,-1.3069,-1.3079,-1.3082,-1.3111,-1.3117,-1.3137,-1.315,-1.3155,-1.3151,-1.3167,-1.3185,-1.3185,-1.3184,-1.3155,-1.3152,-1.3149,0,0,0,0,0,-1.2974,-1.2973,-1.2983,-1.2989,-1.3024,-1.3042,-1.3047,-1.307,-1.3079,-1.308,-1.3099,-1.3116,-1.3149,-1.3151,-1.3156,-1.3153,-1.3186,-1.3185,-1.3184,-1.3156,-1.3152,-1.3149,0,0,0,0,0,0,-1.2941,-1.2978,-1.2989,-1.2999,-1.3017,-1.3048,-1.305,-1.3066,-1.3082,-1.3084,-1.3112,-1.3118,-1.3127,-1.3142,-1.3144,-1.3156,-1.3169,-1.3169,-1.3146,-1.3143,-1.314,-1.3136,-1.3168,0,0,0,0,0,-1.2935,-1.2947,-1.2978,-1.2983,-1.2992,-1.3019,-1.3028,-1.3045,-1.3065,-1.3073,-1.3093,-1.3112,-1.3127,-1.3136,-1.3151,-1.3157,-1.3164,-1.3157,-1.3155,-1.3152,-1.3151,-1.3155,-1.3153,-1.3181,-1.3181,-1.3181,0,0,-1.2923,-1.2944,-1.295,-1.2977,-1.2994,-1.3005,-1.3026,-1.3037,-1.3046,-1.3075,-1.3087,-1.3102,-1.3125,-1.3134,-1.3139,-1.3147,-1.3145,-1.3151,-1.3149,-1.315,-1.3154,-1.3151,-1.3149,-1.318,-1.318,-1.318,0,0,-1.2906,-1.2923,-1.2929,-1.2945,-1.2969,-1.2988,-1.2989,-1.3018,-1.3029,-1.3042,-1.3064,-1.3074,-1.3099,-1.3114,-1.3125,-1.3114,-1.3129,-1.3118,-1.3103,-1.3106,-1.3104,-1.3102,-1.3097,-1.3095,-1.3118,-1.3117,-1.3117,0,-1.2887,-1.2906,-1.2931,-1.2941,-1.2952,-1.2978,-1.2984,-1.2998,-1.3026,-1.3033,-1.3041,-1.3072,-1.309,-1.3102,-1.3099,-1.3108,-1.311,-1.3114,-1.3102,-1.31,-1.3099,-1.3095,-1.3093,-1.3116,-1.3116,-1.3116,-1.3116,0,-1.2881,-1.2893,-1.2895,-1.2921,-1.2933,-1.2941,-1.2967,-1.2975,-1.2991,-1.3008,-1.302,-1.3042,-1.3062,-1.3066,-1.3081,-1.3081,-1.3084,-1.3097,-1.311,-1.3094,-1.3091,-1.3089,-1.3114,-1.3114,-1.3115,-1.3115,0,0,-1.2845,-1.2884,-1.2885,-1.2897,-1.2925,-1.2935,-1.2944,-1.2963,-1.297,-1.2988,-1.2996,-1.3016,-1.3028,-1.304,-1.3057,-1.306,-1.3049,-1.3072,-1.3073,-1.3066,-1.3049,-1.3038,-1.3036,-1.3059,-1.3059,-1.3059,-1.3046,0,-1.2832,-1.2849,-1.2872,-1.2881,-1.2893,-1.2918,-1.2926,-1.2944,-1.296,-1.2972,-1.299,-1.3004,-1.3019,-1.3026,-1.303,-1.3049,-1.3045,-1.3051,-1.3066,-1.3067,-1.3059,-1.3034,-1.3024,-1.301,-1.3045,-1.3045,-1.3045,0,-1.2818,-1.2835,-1.2846,-1.2873,-1.2879,-1.2885,-1.2905,-1.2916,-1.2937,-1.2949,-1.2962,-1.298,-1.2991,-1.3003,-1.3018,-1.3021,-1.3029,-1.3039,-1.3039,-1.3041,-1.3054,-1.3034,-1.3007,-1.3005,-1.3043,-1.3043,-1.3043,0,-1.279,-1.2815,-1.2825,-1.2834,-1.2866,-1.287,-1.2884,-1.2906,-1.2915,-1.2932,-1.2939,-1.2957,-1.2966,-1.298,-1.3002,-1.3009,-1.3014,-1.3028,-1.3023,-1.3022,-1.3022,-1.3022,-1.2995,-1.3028,-1.3029,-1.3029,-1.3029,0,-1.2772,-1.2777,-1.2812,-1.2818,-1.2824,-1.285,-1.2856,-1.2872,-1.2891,-1.29,-1.2923,-1.2931,-1.2961,-1.2972,-1.299,-1.2999,-1.3003,-1.3012,-1.3017,-1.301,-1.3008,-1.3015,-1.3016,-1.3028,-1.3028,-1.3028,-1.3028,0,-1.2741,-1.2764,-1.2776,-1.2806,-1.2813,-1.2817,-1.2842,-1.2848,-1.2866,-1.2877,-1.2881,-1.2909,-1.2924,-1.2947,-1.2969,-1.2981,-1.2986,-1.2994,-1.2979,-1.2981,-1.2974,-1.2974,-1.295,-1.2947,-1.2983,-1.2983,-1.2982,0,-1.2727,-1.2732,-1.2762,-1.277,-1.2782,-1.2795,-1.2805,-1.2831,-1.284,-1.2865,-1.2868,-1.2884,-1.2899,-1.2921,-1.2942,-1.2959,-1.2967,-1.2957,-1.297,-1.2962,-1.2966,-1.2965,-1.2965,-1.2954,-1.2954,-1.2953,-1.2953,0,-1.2701,-1.2712,-1.2726,-1.2744,-1.2755,-1.2771,-1.2787,-1.2792,-1.2822,-1.2831,-1.2846,-1.2858,-1.2879,-1.2895,-1.2915,-1.2929,-1.2945,-1.2949,-1.2948,-1.2941,-1.2931,-1.2935,-1.297,-1.2949,-1.2949,-1.295,-1.295,-1.295,-1.2678,-1.2683,-1.2704,-1.2719,-1.2734,-1.2749,-1.2756,-1.2775,-1.2788,-1.2808,-1.2822,-1.2836,-1.2857,-1.2885,-1.2897,-1.2909,-1.2916,-1.2916,-1.2915,-1.2914,-1.2911,-1.293,-1.2912,-1.2912,-1.2913,-1.2913,-1.2913,0,-1.2652,-1.2667,-1.268,-1.2702,-1.2713,-1.2729,-1.2748,-1.2756,-1.2768,-1.2786,-1.28,-1.2817,-1.2832,-1.2855,-1.2872,-1.2876,-1.2884,-1.288,-1.2879,-1.2882,-1.2904,-1.2902,-1.2873,-1.2873,-1.2873,-1.2873,-1.2873,-1.2873,-1.2639,-1.2648,-1.2662,-1.2679,-1.2694,-1.2708,-1.2717,-1.2731,-1.2745,-1.2763,-1.2776,-1.2791,-1.2811,-1.283,-1.2844,-1.2851,-1.2855,-1.2848,-1.2857,-1.2877,-1.288,-1.2884,-1.2882,-1.2849,-1.2849,-1.2833,-1.2833,-1.2833]}]]